Regional Weather Roundup
Issued by NWS Green Bay, WI

Home | Current Version | Previous Version | Graphics & Text | Print | Product List | Glossary Off
Versions: 1 2 3 4 5 6 7 8 9 10 11 12 13 14 15 16 17 18 19 20 21 22 23 24 25 26 27 28 29 30 31 32 33 34 35 36 37 38 39 40 41 42 43 44 45 46 47 48 49 50

449
ASUS43 KGRB 240411
RWRGRB

NORTH-CENTRAL AND NORTHEAST WISCONSIN REGIONAL WEATHER ROUNDUP
NATIONAL WEATHER SERVICE GREEN BAY WI
1000 PM CST THU FEB 23 2017

WIZ005-009-010>012-018-019-240500-
NORTH CENTRAL WISCONSIN

CITY           SKY/WX    TMP DP  RH WIND       PRES   REMARKS
IRONWOOD       PTCLDY    24  21  88 CALM      29.91F
MANITOWISH WTR MOCLDY    25  25 100 CALM      29.90F
ARBOR VITAE    CLOUDY    29  26  86 NE7         N/A
EAGLE RIVER    CLOUDY    27  22  80 NE7       29.89F
LAND O LAKES   CLOUDY    27  24  89 E3        29.91F
RHINELANDER    CLOUDY    30  24  78 NE9       29.87F
PHILLIPS       CLOUDY    28  24  85 NE9       29.89R
ANTIGO         CLOUDY    32  27  83 NE12      29.87F
TOMAHAWK       CLOUDY    29  23  78 NE7       29.89F
MERRILL        NOT AVBL
$$

WIZ013-073-240500-
NORTHEAST WISCONSIN

CITY           SKY/WX    TMP DP  RH WIND       PRES   REMARKS
IRON MOUNTAIN  CLOUDY    31  23  72 N8        29.93S
MARINETTE      CLOUDY    33  25  72 NE10      29.95S
OCONTO         CLOUDY    34  25  69 NE8       29.92S
$$

WIZ017-030-035>037-045-240500-
CENTRAL WISCONSIN

CITY           SKY/WX    TMP DP  RH WIND       PRES   REMARKS
MEDFORD        CLOUDY    31  25  78 NE12G20   29.84F
WAUSAU         CLOUDY    34  26  72 E10       29.84F
MOSINEE        FLURRIES  36  27  69 NE12      29.86F
MARSHFIELD     FLURRIES  34  27  75 NE9       29.83F
WISC RAPIDS    CLOUDY    38  28  67 E15G23    29.84F
STEVENS POINT  CLOUDY    34  25  69 E12G20    29.86F
WAUPACA        CLOUDY    37  29  72 NE9       29.89S
SHAWANO        CLOUDY    35  28  74 NE6       29.92S
CLINTONVILLE   CLOUDY    34  27  75 E10       29.91S
WAUTOMA        LGT RAIN  35  29  78 E17       29.84F
$$

WIZ038-039-048-051-240500-
FOX VALLEY

CITY           SKY/WX    TMP DP  RH WIND       PRES   REMARKS
NWS GREEN BAY  CLOUDY    35  28  75 NE13      29.92R
APPLETON       CLOUDY    36  25  64 NE10      29.88R
OSHKOSH        LGT SNOW  33  28  81 NE12      29.88R
FOND DU LAC    LGT SNOW  33  29  85 NE13      29.86F FOG
$$

WIZ022-050-052-240500-
EAST CENTRAL WISCONSIN

CITY           SKY/WX    TMP DP  RH WIND       PRES   REMARKS
EPHRAIM        CLOUDY    32  24  71 NE5       29.93S
WASHINGTON ISL CLOUDY    32  22  67 NE10      29.93F
STURGEON BAY   CLOUDY    34  25  69 NE13      29.93S
MANITOWOC      LGT RAIN  36  30  79 NE8       29.90R
SHEBOYGAN      LGT SNOW  33  31  92 NE21      29.86F VSB 1
$$

LMZ563-521-522-541>543-240500-
LAKESHORE

STATION/POSITION TIME  TEMP    WIND        PRES    VSBY  WAVE
                       AIR SEA DIR/SP/G                  HT/PER
                 (UTC) (F)     (DEG/KT/KT) (MB)    (MI)  (FT/S)
SHEBOYGAN LKSHOR 0400   33      20/ 26/ 28 1011.3S
KEWAUNEE LKSHORE 0348   36      40/ 16/ 20   N/A
NORTHPORT PIER   0340   33      30/  8/ 11 1013.9S
SISTER BAY LKSHO 0335   33      30/  6/  9   N/A
CHAMBERS ISLAND  0340   33      40/ 10/ 13 1013.2S
MENOMINEE LKSHOR 0348   33      20/ 11/ 14 1013.3R
$$




USA.gov is the U.S. government's official web portal to all federal, state and local government web resources and services.